Skip Page Navigation
NASA JPL Caltech
NASA Logo - Jet Propulsion Laboratory + View the NASA Portal
+ Center for Near-Earth Object Studies
JPL Home Earth Solar System Stars & Galaxies Technology
JPL Solar System Dynamics
BODIES ORBITS EPHEMERIDES TOOLS PHYSICAL DATA DISCOVERY FAQ SITE MAP
IMPORTANT: The SSD Announcement email list is now available. Major changes are coming in the near future, including possible hostname and/or URL changes. To be notified of such changes, subscribe to this email list.

Please visit this page for more details.


JPL Small-Body Database Browser
Search: [ help ]  
376615 (2013 PE43)
Classification: Main-belt Asteroid          SPK-ID: 2376615
Ephemeris | Orbit Diagram | Orbital Elements | Mission Design | Physical Parameters | Discovery Circumstances | Close-Approach Data ]

[ show orbit diagram ]
Orbital Elements at Epoch 2459000.5 (2020-May-31.0) TDB
Reference: JPL 19 (heliocentric ecliptic J2000)
 Element Value Uncertainty (1-sigma)   Units 
e .1229991708765367 8.3318e-08  
a 2.7839390151955 4.3741e-08 au
q 2.441516824555611 2.2945e-07 au
i 13.3430429567942 9.7522e-06 deg
node 180.214486654988 2.3919e-05 deg
peri 156.2484092832708 3.5313e-05 deg
M 169.5480549734083 2.7969e-05 deg
tp 2458201.441981075643
(2018-Mar-23.94198108)
0.00012628 TDB
period 1696.633363667221
4.65
3.9986e-05
1.095e-07
d
yr
n .2121849114306411 5.0008e-09 deg/d
Q 3.126361205835388 4.9121e-08 au
  Orbit Determination Parameters
   # obs. used (total)      198  
   data-arc span      5565 days (15.24 yr)  
   first obs. used      2004-10-12  
   last obs. used      2020-01-07  
   planetary ephem.      DE431  
   SB-pert. ephem.      SB431-N16  
   condition code      0  
   norm. resid. RMS      .60436  
   source      ORB  
   producer      Otto Matic  
   solution date      2020-Jan-30 09:26:14  

Additional Information
 Earth MOID = 1.43926 au 
 Jupiter MOID = 2.32831 au 
 T_jup = 3.282 
[ show covariance matrix ]

Ephemeris | Orbit Diagram | Orbital Elements | Mission Design | Physical Parameters | Discovery Circumstances | Close-Approach Data ]

Physical Parameter Table
Parameter Symbol Value Units Sigma Reference Notes
absolute magnitude H 16.3   n/a MPO413407  

376615 (2013 PE43)          Discovered 2004-Oct-12 by Tucker, R. A. at Goodricke-Pigott
Reference: Last Updated: 2013-10-21

[ show close-approach data ]
Alternate Designations
 2013 PE43 = 2007 ER111 
Ephemeris | Orbit Diagram | Orbital Elements | Mission Design | Physical Parameters | Discovery Circumstances | Close-Approach Data ]
ABOUT SSD CREDITS/AWARDS PRIVACY/COPYRIGHT GLOSSARY LINKS
FirstGov 2020-Feb-22 11:24 UT
(server date/time)  
NASA Home Page
Site Manager:   Ryan S. Park
Webmaster  Alan B. Chamberlin